Tracking 30061 objects as of 9-Dec-2024
HD Live streaming from Space Station
objects crossing your sky now

GALILEO-FM4

Track GALILEO-FM4 now!
GALILEO-FM4 is classified as:


NORAD ID: 38858
Int'l Code: 2012-055B
Perigee: 23,924.0 km
Apogee: 23,936.8 km
Inclination: 55.5 °
Period: 874.9 minutes
Semi major axis: 30301 km
RCS: 13.2202 m2 (large)
Launch date: October 12, 2012
Source: European Space Agency (ESA)
Launch site: FRENCH GUIANA (FRGUI)

GALILEO-FM4 is one of the first four Galileo satellites which are part of system's in-orbit validation, or IOV, phase.
Your satellite tracking list
Your tracking list is empty




NASA's NSSDC Master Catalog

Two Line Element Set (TLE):
1 38858U 12055B   24339.28633225  .00000052  00000-0  00000+0 0  9993
2 38858  55.4983 117.4476 0002111 117.5662 242.4150  1.64591874 75433
Source of the keplerian elements: AFSPC